1514991601.17,22678,6.13,71454.5,-6.31,-20.69,-18.73,0,*5D
1514991602.4,22679,6.19,71462.5,-6.33,-20.63,-18.73,0,*54
1514991603.67,22680,6.19,71460.3,-6.33,-20.49,-18.59,0,*52
1514991604.91,22681,6.19,71452.0,-6.33,-20.59,-18.65,0,*5D
1514991606.15,22682,6.19,71462.5,-6.33,-20.35,-18.49,0,*5A
1514991607.43,22683,6.19,71458.8,-6.33,-20.35,-18.35,0,*50
1514991608.66,22684,6.19,71452.3,-6.35,-20.29,-18.35,0,*5C
1514991609.93,22685,6.13,71428.5,-6.33,-20.19,-18.35,0,*58
1514991611.19,22686,6.19,71436.0,-6.33,-20.05,-18.31,0,*52
1514991612.45,22687,6.19,71406.3,-6.33,-19.57,-17.73,0,*57
1514991613.68,22688,6.19,71426.3,-6.31,-18.73,-17.21,0,*5A
1514991614.93,22689,6.13,71444.0,-6.33,-18.45,-17.41,0,*5A
1514991616.2,22690,6.13,71454.3,-6.33,-17.17,-15.75,0,*5F
1514991617.43,22691,6.19,71448.8,-6.35,-17.55,-16.93,0,*55
1514991618.65,22692,6.19,71430.8,-6.31,-18.17,-16.51,0,*55
1514991619.93,22693,6.19,71424.8,-6.33,-18.01,-16.69,0,*5A
1514991621.15,22694,6.13,71394.8,-6.31,-20.15,-18.17,0,*56
1514991622.38,22695,6.19,71432.5,-6.31,-20.09,-18.01,0,*5D
1514991623.66,22696,6.19,71448.8,-6.33,-19.41,-17.41,0,*51
1514991624.93,22697,6.13,71454.3,-6.35,-19.27,-17.41,0,*56
1514991626.21,22698,6.13,71446.5,-6.33,-19.41,-17.45,0,*5B
1514991627.43,22699,6.19,71444.8,-6.37,-19.75,-17.73,0,*5C
1514991628.67,22700,6.13,71440.0,-6.35,-19.51,-17.59,0,*51
1514991629.88,22701,6.13,71444.8,-6.35,-19.51,-17.69,0,*53
1514991631.15,22702,6.13,71446.5,-6.35,-19.57,-17.59,0,*55
1514991632.39,22703,6.13,71448.3,-6.35,-19.51,-17.59,0,*52
1514991633.62,22704,6.13,71444.3,-6.35,-19.41,-17.49,0,*55
1514991634.86,22705,6.19,71422.5,-6.35,-19.27,-17.31,0,*5B
1514991636.11,22706,6.13,71436.3,-6.33,-19.07,-17.17,0,*58
1514991637.37,22707,6.19,71422.8,-6.33,-19.07,-17.17,0,*59
1514991638.63,22708,6.13,71420.5,-6.33,-18.93,-16.83,0,*56
1514991639.88,22709,6.19,71428.8,-6.33,-18.89,-16.83,0,*5C
1514991641.11,22710,6.19,71422.3,-6.31,-18.17,-16.23,0,*5B
1514991642.34,22711,6.19,71432.8,-6.31,-18.25,-16.23,0,*5B
1514991643.57,22712,6.19,71420.3,-6.33,-18.49,-16.37,0,*55
1514991644.82,22713,6.19,71420.5,-6.29,-18.25,-16.17,0,*57
1514991646.08,22714,6.19,71448.0,-6.29,-18.11,-15.89,0,*53
1514991647.33,22715,6.13,71430.8,-6.29,-18.01,-15.75,0,*50
1514991648.6,22716,6.19,71392.0,-6.25,-17.97,-15.81,0,*54
1514991649.87,22717,6.13,71372.3,-6.25,-17.97,-15.57,0,*5E
1514991651.14,22718,6.19,71382.8,-6.25,-17.55,-15.39,0,*57
1514991652.4,22719,6.19,71376.8,-6.25,-17.03,-14.93,0,*54
1514991653.64,22720,6.19,71406.5,-6.25,-17.03,-14.65,0,*57
1514991654.9,22721,6.13,71392.0,-6.23,-16.89,-14.51,0,*54
1514991656.12,22722,6.13,71406.8,-6.25,-16.55,-14.19,0,*5C
1514991657.38,22723,6.13,71404.0,-6.23,-16.69,-14.37,0,*58
1514991658.62,22724,6.13,71414.8,-6.23,-16.59,-14.23,0,*59
1514991659.88,22725,6.19,71448.5,-6.23,-16.55,-14.05,0,*50
1514991661.15,22726,6.13,71430.0,-6.23,-16.41,-13.97,0,*5A
1514991662.41,22727,6.19,71412.3,-6.23,-16.17,-13.73,0,*52
1514991663.67,22728,6.13,71408.8,-6.21,-15.89,-13.61,0,*58
1514991664.95,22729,6.19,71412.5,-6.19,-15.89,-13.79,0,*5B
1514991666.18,22730,6.13,71400.3,-6.19,-15.99,-14.15,0,*5F
1514991667.42,22731,6.13,71408.5,-6.19,-15.75,-14.15,0,*5C
1514991668.66,22732,6.19,71408.3,-6.19,-15.53,-14.19,0,*57
1514991669.89,22733,6.19,71424.0,-6.17,-15.63,-14.55,0,*53
1514991671.13,22734,6.13,71432.0,-6.19,-15.67,-14.65,0,*5D
1514991672.42,22735,6.13,71450.0,-6.19,-15.81,-15.01,0,*57
1514991673.68,22736,6.19,71440.0,-6.19,-15.81,-15.07,0,*52
1514991674.97,22737,6.19,71454.3,-6.19,-15.89,-15.21,0,*5F
1514991676.26,22738,6.19,71440.0,-6.19,-15.81,-15.39,0,*51
1514991677.55,22739,6.19,71410.5,-6.19,-15.89,-15.39,0,*58
1514991678.82,22740,6.19,71442.5,-6.19,-15.67,-15.21,0,*5F
1514991680.05,22741,6.13,71440.3,-6.19,-15.49,-15.11,0,*51
1514991681.29,22742,6.19,71442.5,-6.17,-15.63,-15.43,0,*53
1514991682.56,22743,6.13,71442.3,-6.19,-16.09,-15.53,0,*52
1514991683.83,22744,6.13,71436.5,-6.19,-16.23,-15.53,0,*5D
1514991685.12,22745,6.13,71402.0,-6.19,-16.51,-15.81,0,*56
1514991686.36,22746,6.19,71388.3,-6.21,-16.79,-15.89,0,*5C
1514991687.56,22747,6.13,71394.8,-6.21,-16.93,-15.99,0,*58
1514991688.78,22748,6.13,71428.0,-6.21,-16.83,-15.75,0,*54
1514991690.01,22749,6.19,71438.0,-6.23,-16.75,-15.67,0,*5D
1514991691.27,22750,6.13,71444.0,-6.23,-16.69,-15.67,0,*58
1514991692.47,22751,6.13,71424.8,-6.21,-16.93,-15.67,0,*5E
1514991693.67,22752,6.13,71410.0,-6.21,-16.93,-15.67,0,*5D
1514991694.91,22753,6.13,71426.0,-6.21,-17.03,-15.75,0,*57
1514991696.18,22754,6.13,71414.0,-6.23,-17.03,-15.53,0,*56
1514991697.41,22755,6.19,71422.5,-6.21,-17.11,-15.63,0,*55
1514991698.7,22756,6.19,71452.0,-6.19,-17.11,-15.39,0,*52
1514991699.99,22757,6.13,71436.8,-6.23,-17.03,-15.43,0,*54
1514991701.25,22758,6.19,71430.0,-6.21,-17.11,-15.35,0,*5B
1514991702.52,22759,6.19,71434.0,-6.23,-17.17,-15.25,0,*5F
1514991703.78,22760,6.13,71436.8,-6.21,-17.11,-15.21,0,*55
1514991705.02,22761,6.13,71412.3,-6.23,-16.97,-15.29,0,*51
1514991706.27,22762,6.13,71440.5,-6.25,-17.17,-15.29,0,*5D
1514991707.52,22763,6.13,71450.5,-6.21,-17.03,-15.25,0,*51
1514991708.75,22764,6.19,71450.8,-6.23,-16.89,-15.15,0,*54
1514991710.03,22765,6.19,71442.0,-6.23,-17.17,-15.29,0,*5C
1514991711.29,22766,6.13,71446.3,-6.23,-17.03,-15.15,0,*55
1514991712.52,22767,6.19,71444.5,-6.21,-16.93,-15.01,0,*5B
1514991713.78,22768,6.13,71446.5,-6.23,-17.03,-15.15,0,*5B
1514991715.04,22769,6.13,71446.8,-6.23,-17.03,-15.11,0,*5E
1514991716.25,22770,6.13,71410.3,-6.21,-16.97,-15.07,0,*5F
1514991717.51,22771,6.13,71428.5,-6.23,-17.03,-15.07,0,*50
1514991718.75,22772,6.19,71444.5,-6.23,-16.89,-15.07,0,*50
1514991720.01,22773,6.13,71430.0,-6.23,-16.75,-14.79,0,*5A
1514991721.25,22774,6.13,71442.0,-6.23,-16.59,-14.69,0,*52
1514991722.49,22775,6.13,71456.8,-6.23,-16.55,-14.69,0,*5F
1514991723.73,22776,6.13,71472.8,-6.23,-16.55,-14.65,0,*50
1514991724.98,22777,6.13,71468.0,-6.23,-16.31,-14.37,0,*54
1514991726.25,22778,6.13,71470.5,-6.21,-16.13,-14.47,0,*5E
1514991727.53,22779,6.13,71454.5,-6.23,-16.31,-14.51,0,*5A
1514991728.77,22780,6.19,71452.5,-6.23,-16.41,-14.65,0,*5C
1514991730.04,22781,6.13,71442.5,-6.23,-16.41,-14.55,0,*5E
1514991731.28,22782,6.13,71416.0,-6.23,-16.55,-14.61,0,*5F
1514991732.52,22783,6.19,71424.0,-6.23,-16.55,-14.65,0,*5A
1514991733.78,22784,6.13,71426.3,-6.23,-16.59,-14.55,0,*52
1514991735.04,22785,6.13,71424.0,-6.23,-16.13,-14.11,0,*5D
1514991736.3,22786,6.13,71440.3,-6.23,-15.71,-14.05,0,*5C
1514991737.55,22787,6.13,71460.0,-6.21,-15.01,-13.37,0,*5E
1514991738.78,22788,6.13,71470.5,-6.23,-15.15,-13.69,0,*5D
1514991740.01,22789,6.13,71460.5,-6.23,-15.25,-13.73,0,*54
1514991741.29,22790,6.13,71452.5,-6.23,-15.57,-14.05,0,*5F
1514991742.52,22791,6.13,71468.0,-6.21,-15.75,-13.87,0,*51
1514991743.78,22792,6.13,71456.0,-6.21,-15.81,-14.05,0,*54
1514991745.04,22793,6.13,71460.0,-6.23,-15.95,-14.05,0,*52
1514991746.27,22794,6.13,71458.0,-6.21,-15.67,-14.05,0,*5A
1514991747.53,22795,6.13,71444.3,-6.23,-15.71,-14.05,0,*5E
1514991748.79,22796,6.13,71424.0,-6.23,-15.67,-14.05,0,*5A
1514991750.02,22797,6.13,71420.8,-6.21,-15.75,-14.05,0,*5A
1514991751.31,22798,6.19,71424.0,-6.23,-15.81,-13.97,0,*50
1514991752.57,22799,6.13,71438.0,-6.23,-15.67,-13.97,0,*59
1514991753.82,22800,6.13,71440.5,-6.23,-15.57,-13.93,0,*51
1514991755.08,22801,6.13,71454.8,-6.23,-15.53,-13.79,0,*50
1514991756.32,22802,6.13,71470.3,-6.21,-15.39,-13.79,0,*5D
1514991757.55,22803,6.13,71444.8,-6.21,-15.35,-13.65,0,*5D
1514991758.79,22804,6.13,71448.3,-6.23,-15.29,-13.65,0,*55
1514991760.02,22805,6.13,71448.0,-6.23,-15.25,-13.65,0,*58
1514991761.25,22806,6.13,71438.3,-6.23,-15.29,-13.65,0,*57
1514991762.51,22807,6.19,71458.5,-6.23,-15.11,-13.37,0,*5A
1514991763.73,22808,6.13,71436.8,-6.21,-14.79,-13.07,0,*5B
1514991764.98,22809,6.13,71428.8,-6.21,-14.79,-13.01,0,*5C
1514991766.22,22810,6.13,71420.5,-6.21,-14.75,-12.89,0,*59
1514991767.45,22811,6.13,71440.3,-6.23,-14.69,-12.89,0,*57
1514991768.71,22812,6.13,71460.3,-6.21,-14.51,-12.79,0,*52
1514991769.97,22813,6.13,71468.3,-6.23,-14.43,-12.97,0,*52
1514991771.27,22814,6.13,71466.0,-6.19,-14.47,-13.01,0,*56
1514991772.54,22815,6.13,71432.8,-6.23,-14.51,-13.19,0,*50
1514991773.77,22816,6.13,71444.8,-6.21,-14.43,-13.07,0,*5D
1514991774.99,22817,6.13,71440.0,-6.21,-14.19,-12.97,0,*5B
1514991776.22,22818,6.13,71446.0,-6.23,-14.37,-13.07,0,*52
1514991777.45,22819,6.13,71456.5,-6.23,-14.29,-13.07,0,*5C
1514991778.68,22820,6.13,71456.5,-6.21,-14.37,-13.01,0,*5D
1514991779.95,22821,6.13,71450.8,-6.23,-14.51,-13.07,0,*58
1514991781.21,22822,6.13,71468.3,-6.21,-14.51,-13.01,0,*5F
1514991782.47,22823,6.13,71486.0,-6.23,-14.43,-12.93,0,*55
1514991783.71,22824,6.13,71484.5,-6.21,-14.33,-12.79,0,*53
1514991784.97,22825,6.13,71474.8,-6.23,-14.37,-12.79,0,*54
1514991786.21,22826,6.13,71468.8,-6.21,-14.23,-12.53,0,*58
1514991787.43,22827,6.19,71462.5,-6.21,-14.19,-12.29,0,*5D
1514991788.7,22828,6.13,71466.5,-6.23,-14.05,-12.25,0,*51
1514991789.99,22829,6.13,71470.0,-6.23,-13.97,-11.97,0,*56
1514991791.25,22830,6.19,71468.8,-6.21,-13.79,-11.67,0,*53
1514991792.48,22831,6.13,71470.8,-6.21,-13.65,-11.59,0,*52
1514991793.74,22832,6.13,71472.8,-6.23,-13.65,-11.59,0,*53
1514991795.0,22833,6.13,71474.8,-6.23,-13.43,-11.55,0,*5A
1514991796.29,22834,6.13,71462.0,-6.23,-13.37,-11.55,0,*5E
1514991797.52,22835,6.13,71452.8,-6.21,-13.07,-11.37,0,*5A
1514991798.76,22836,6.13,71454.3,-6.23,-12.97,-11.41,0,*52
1514991800.02,22837,6.13,71448.0,-6.23,-12.71,-11.45,0,*5F
1514991801.27,22838,6.13,71446.0,-6.21,-12.65,-11.51,0,*52
1514991802.51,22839,6.13,71442.3,-6.21,-12.47,-11.55,0,*57
1514991803.8,22840,6.13,71436.8,-6.23,-12.53,-11.59,0,*52
1514991805.03,22841,6.13,71436.0,-6.21,-12.47,-11.67,0,*59
1514991806.31,22842,6.13,71436.8,-6.23,-12.53,-11.81,0,*55
1514991807.6,22843,6.13,71456.3,-6.23,-12.53,-11.81,0,*54
1514991808.88,22844,6.13,71454.8,-6.23,-12.57,-11.85,0,*53
1514991810.17,22845,6.13,71466.3,-6.23,-12.53,-11.93,0,*51
1514991811.47,22846,6.13,71464.0,-6.23,-12.53,-12.07,0,*5C
1514991812.73,22847,6.13,71470.0,-6.23,-12.57,-12.21,0,*5D
1514991814.02,22848,6.19,71476.3,-6.23,-12.57,-12.35,0,*57
1514991815.28,22849,6.13,71468.8,-6.23,-12.71,-12.43,0,*53
1514991816.56,22850,6.13,71468.5,-6.23,-12.65,-12.57,0,*5B
1514991817.82,22851,6.13,71470.0,-6.21,-12.79,-12.79,0,*59
1514991819.08,22852,6.13,71472.5,-6.23,-12.83,-12.93,0,*59
1514991820.32,22853,6.13,71474.3,-6.23,-12.97,-12.93,0,*5D
1514991821.53,22854,6.13,71474.8,-6.25,-13.19,-13.07,0,*57
1514991822.77,22855,6.13,71458.0,-6.25,-13.29,-13.11,0,*52
1514991824.0,22856,6.13,71440.5,-6.23,-13.55,-13.11,0,*5C
1514991825.24,22857,6.13,71446.3,-6.23,-13.55,-13.11,0,*5D
1514991826.48,22858,6.13,71456.3,-6.23,-13.69,-13.19,0,*55
1514991827.72,22859,6.13,71450.8,-6.23,-13.65,-13.19,0,*58
1514991828.95,22860,6.13,71442.8,-6.25,-13.79,-13.07,0,*56
1514991830.19,22861,6.13,71434.0,-6.25,-13.79,-13.07,0,*57
1514991831.42,22862,6.13,71440.3,-6.25,-13.79,-12.97,0,*5C
1514991832.64,22863,6.13,71440.0,-6.25,-13.69,-12.97,0,*5C
1514991833.85,22864,6.13,71444.8,-6.25,-13.69,-12.93,0,*5F
1514991835.08,22865,6.13,71442.0,-6.25,-13.79,-13.07,0,*53
1514991836.32,22866,6.13,71444.5,-6.25,-13.79,-13.11,0,*57
1514991837.56,22867,6.13,71450.8,-6.25,-13.79,-13.11,0,*56
1514991838.76,22868,6.13,71444.3,-6.25,-13.93,-13.11,0,*5D
1514991840.0,22869,6.13,71456.8,-6.25,-14.11,-13.29,0,*5A
1514991841.23,22870,6.13,71446.5,-6.29,-14.23,-13.43,0,*53
1514991842.47,22871,6.13,71476.0,-6.25,-14.19,-13.29,0,*5B
1514991843.73,22872,6.13,71466.5,-6.29,-14.05,-13.15,0,*56
1514991844.94,22873,6.13,71460.3,-6.25,-13.93,-13.07,0,*50
1514991846.18,22874,6.13,71456.8,-6.25,-14.05,-12.97,0,*57
1514991847.42,22875,6.13,71432.0,-6.29,-14.15,-12.97,0,*5B
1514991848.7,22876,6.13,71426.5,-6.29,-13.83,-12.83,0,*55
1514991849.96,22877,6.13,71428.5,-6.29,-13.69,-12.57,0,*59
1514991851.19,22878,6.13,71428.0,-6.29,-13.55,-12.29,0,*50
1514991852.44,22879,6.13,71426.8,-6.29,-13.55,-12.15,0,*5E
1514991853.7,22880,6.13,71434.3,-6.25,-13.37,-11.97,0,*59
1514991854.96,22881,6.13,71440.8,-6.29,-13.23,-11.89,0,*5E
1514991856.19,22882,6.13,71440.3,-6.25,-13.11,-11.81,0,*58
1514991857.45,22883,6.13,71444.8,-6.29,-12.93,-11.73,0,*53
1514991858.72,22884,6.13,71452.5,-6.29,-12.75,-11.59,0,*54
1514991859.99,22885,6.13,71444.3,-6.25,-12.53,-11.55,0,*51
1514991861.23,22886,6.13,71448.0,-6.25,-12.43,-11.67,0,*52
1514991862.48,22887,6.13,71452.5,-6.29,-12.39,-11.73,0,*57
1514991863.72,22888,6.13,71448.5,-6.25,-12.25,-11.73,0,*59
1514991864.97,22889,6.13,71452.0,-6.29,-12.29,-11.97,0,*52
1514991866.24,22890,6.13,71472.8,-6.25,-12.35,-11.93,0,*5F
1514991867.48,22891,6.13,71460.0,-6.25,-12.25,-11.93,0,*5F
1514991868.72,22892,6.13,71450.0,-6.25,-12.25,-11.93,0,*5C
1514991869.98,22893,6.13,71468.5,-6.29,-12.29,-11.89,0,*56
1514991871.24,22894,6.13,71468.8,-6.29,-12.29,-11.97,0,*5E
1514991872.48,22895,6.13,71476.0,-6.25,-12.25,-11.93,0,*5B
1514991873.76,22896,6.13,71474.3,-6.29,-12.75,-12.11,0,*58
1514991875.02,22897,6.13,71474.3,-6.25,-12.79,-11.97,0,*54
1514991876.26,22898,6.13,71478.0,-6.25,-12.83,-12.03,0,*50
1514991877.49,22899,6.13,71478.3,-6.29,-12.89,-12.03,0,*57
1514991878.73,22900,6.13,71476.0,-6.25,-12.93,-11.97,0,*5F
1514991879.96,22901,6.13,71474.0,-6.25,-12.97,-11.97,0,*5A
1514991881.2,22902,6.13,71470.0,-6.25,-12.93,-11.97,0,*5D
1514991882.44,22903,6.13,71452.3,-6.25,-13.07,-11.97,0,*50
1514991883.69,22904,6.13,71452.5,-6.29,-13.11,-11.97,0,*5C
1514991884.95,22905,6.13,71464.3,-6.29,-12.97,-11.89,0,*5D
1514991886.23,22906,6.13,71484.0,-6.29,-12.75,-11.73,0,*57
1514991887.49,22907,6.13,71486.3,-6.25,-12.65,-11.67,0,*5E
1514991888.76,22908,6.13,71478.0,-6.29,-12.61,-11.73,0,*5C
1514991890.04,22909,6.13,71466.3,-6.29,-12.61,-11.85,0,*54
1514991891.31,22910,6.13,71458.5,-6.29,-12.57,-11.77,0,*54
1514991892.54,22911,6.13,71464.3,-6.25,-12.43,-11.73,0,*58
1514991893.79,22912,6.13,71474.5,-6.29,-12.47,-11.59,0,*5B
1514991895.0,22913,6.13,71478.8,-6.31,-12.43,-11.41,0,*5E
1514991896.22,22914,6.13,71476.5,-6.31,-12.39,-11.33,0,*51
1514991897.44,22915,6.13,71474.0,-6.31,-12.43,-11.33,0,*5D
1514991898.67,22916,6.13,71482.3,-6.31,-12.39,-11.29,0,*58
1514991899.88,22917,6.13,71472.8,-6.31,-12.29,-11.15,0,*57
1514991901.09,22918,6.13,71478.3,-6.25,-12.21,-10.85,0,*5D
1514991902.37,22919,6.13,71488.3,-6.29,-12.15,-10.75,0,*58
1514991903.66,22920,6.13,71480.3,-6.29,-12.15,-10.79,0,*5E
1514991904.91,22921,6.13,71478.8,-6.29,-12.15,-10.57,0,*53
1514991906.17,22922,6.13,71486.0,-6.29,-12.11,-10.57,0,*54
1514991907.42,22923,6.13,71492.3,-6.29,-11.97,-10.49,0,*57
1514991908.68,22924,6.13,71496.5,-6.29,-11.85,-10.45,0,*5F
1514991909.93,22925,6.13,71498.0,-6.29,-11.63,-10.49,0,*5A
1514991911.19,22926,6.13,71496.3,-6.29,-11.59,-10.49,0,*50
1514991912.48,22927,6.13,71490.3,-6.29,-11.63,-10.67,0,*54
1514991913.74,22928,6.13,71504.5,-6.29,-11.45,-10.79,0,*50
1514991914.95,22929,6.13,71506.5,-6.31,-11.45,-11.01,0,*56
1514991916.17,22930,6.13,71486.8,-6.31,-11.73,-11.19,0,*52
1514991917.42,22931,6.13,71486.8,-6.31,-11.73,-11.33,0,*5B
1514991918.65,22932,6.13,71498.5,-6.31,-11.77,-11.41,0,*59
1514991919.9,22933,6.13,71504.3,-6.31,-11.63,-11.33,0,*58
1514991921.18,22934,6.13,71494.3,-6.33,-11.67,-11.33,0,*59
1514991922.43,22935,6.13,71488.3,-6.31,-11.73,-11.29,0,*54
1514991923.69,22936,6.13,71488.0,-6.31,-11.73,-11.29,0,*57
1514991924.96,22937,6.13,71486.8,-6.33,-11.77,-11.33,0,*5B
1514991926.22,22938,6.13,71484.5,-6.31,-11.59,-11.29,0,*51
1514991927.47,22939,6.13,71486.3,-6.31,-11.59,-11.33,0,*5B
1514991928.72,22940,6.13,71478.3,-6.31,-11.59,-11.33,0,*55
1514991930.0,22941,6.13,71478.8,-6.33,-11.55,-11.51,0,*5E
1514991931.23,22942,6.13,71478.8,-6.31,-11.51,-11.45,0,*5E
1514991932.48,22943,6.13,71484.8,-6.31,-11.51,-11.51,0,*5A
1514991933.71,22944,6.13,71488.0,-6.31,-11.51,-11.45,0,*58
1514991934.96,22945,6.13,71490.0,-6.31,-11.59,-11.51,0,*54
1514991936.24,22946,6.13,71484.8,-6.33,-11.63,-11.51,0,*5C
1514991937.52,22947,6.13,71484.3,-6.33,-11.77,-11.51,0,*58
1514991938.78,22948,6.13,71498.5,-6.33,-11.67,-11.45,0,*53
1514991940.03,22949,6.13,71498.8,-6.33,-11.81,-11.41,0,*5E
1514991941.26,22950,6.13,71498.3,-6.31,-11.73,-11.45,0,*5D
1514991942.49,22951,6.13,71500.5,-6.31,-11.73,-11.41,0,*58
1514991943.72,22952,6.13,71498.8,-6.31,-11.73,-11.41,0,*5B
1514991944.95,22953,6.13,71492.3,-6.31,-11.63,-11.41,0,*5B
1514991946.23,22954,6.13,71490.8,-6.33,-11.67,-11.33,0,*5F
1514991947.51,22955,6.13,71494.3,-6.33,-11.63,-11.37,0,*5E
1514991948.74,22956,6.13,71490.3,-6.31,-11.59,-11.41,0,*57
1514991949.98,22957,6.13,71488.3,-6.31,-11.67,-11.45,0,*5F
1514991951.25,22958,6.13,71486.8,-6.33,-11.55,-11.33,0,*52
1514991952.51,22959,6.13,71480.3,-6.33,-11.51,-11.23,0,*56
1514991953.76,22960,6.13,71468.0,-6.33,-11.51,-11.23,0,*5C
1514991955.01,22961,6.13,71466.3,-6.33,-11.51,-11.23,0,*5D
1514991956.24,22962,6.13,71454.8,-6.31,-11.33,-11.01,0,*58
1514991957.5,22963,6.13,71454.0,-6.33,-11.37,-11.11,0,*5E
1514991958.73,22964,6.13,71454.8,-6.31,-11.55,-11.19,0,*57
1514991959.96,22965,6.13,71434.8,-6.33,-11.45,-11.23,0,*5C
1514991961.22,22966,6.13,71430.5,-6.33,-11.55,-11.23,0,*5E
1514991962.46,22967,6.13,71444.5,-6.33,-11.45,-11.23,0,*5E
1514991963.71,22968,6.13,71454.3,-6.33,-11.37,-11.23,0,*54
1514991964.96,22969,6.13,71450.3,-6.33,-11.37,-11.45,0,*55
1514991966.24,22970,6.13,71444.8,-6.33,-11.51,-11.67,0,*5D
1514991967.53,22971,6.13,71414.8,-6.33,-11.55,-11.89,0,*58
1514991968.81,22972,6.13,71404.8,-6.33,-11.51,-11.89,0,*5F
1514991970.07,22973,6.13,71398.8,-6.33,-11.51,-12.03,0,*5F
1514991971.35,22974,6.13,71398.0,-6.33,-11.67,-12.15,0,*5A
1514991972.61,22975,6.13,71410.0,-6.33,-11.93,-12.29,0,*5F
1514991973.88,22976,6.13,71394.0,-6.33,-11.93,-12.29,0,*5C
1514991975.16,22977,6.13,71396.5,-6.33,-11.93,-12.15,0,*52
1514991976.42,22978,6.13,71400.5,-6.37,-11.97,-12.21,0,*5A
1514991977.68,22979,6.13,71402.5,-6.37,-11.97,-12.21,0,*5B
1514991978.93,22980,6.13,71400.8,-6.37,-12.03,-12.07,0,*57
1514991980.21,22981,6.13,71418.8,-6.37,-12.07,-12.11,0,*55
1514991981.44,22982,6.13,71418.8,-6.35,-12.03,-12.07,0,*57
1514991982.7,22983,6.13,71414.8,-6.35,-11.81,-12.07,0,*5F
1514991983.95,22984,6.13,71412.8,-6.37,-11.97,-12.21,0,*59
1514991985.24,22985,6.13,71428.0,-6.37,-11.93,-12.35,0,*59
1514991986.5,22986,6.13,71430.0,-6.37,-11.97,-12.47,0,*5B
1514991987.78,22987,6.13,71440.0,-6.37,-11.97,-12.53,0,*5F
1514991989.03,22988,6.13,71428.3,-6.35,-11.97,-12.65,0,*57
1514991990.28,22989,6.13,71428.8,-6.37,-12.25,-12.65,0,*5E
1514991991.54,22990,6.13,71430.3,-6.37,-12.39,-12.71,0,*5E
1514991992.79,22991,6.13,71438.0,-6.37,-12.47,-12.57,0,*52
1514991994.05,22992,6.13,71428.8,-6.37,-12.47,-12.53,0,*55
1514991995.31,22993,6.13,71430.5,-6.39,-12.57,-12.61,0,*5A
1514991996.56,22994,6.13,71436.5,-6.39,-12.57,-12.57,0,*58
1514991997.82,22995,6.13,71450.3,-6.39,-12.57,-12.61,0,*5C
1514991999.07,22996,6.13,71454.0,-6.39,-12.61,-12.57,0,*5F
1514992000.33,22997,6.13,71456.0,-6.39,-12.71,-12.57,0,*5F
1514992001.54,22998,6.13,71468.8,-6.39,-12.43,-12.39,0,*59
1514992002.77,22999,6.13,71466.8,-6.39,-12.53,-12.39,0,*59
1514992004.01,23000,6.13,71472.3,-6.39,-12.53,-12.29,0,*50
1514992005.25,23001,6.13,71480.8,-6.39,-12.53,-12.29,0,*51
1514992006.49,23002,6.13,71488.5,-6.39,-12.53,-12.39,0,*53
1514992007.69,23003,6.13,71490.5,-6.39,-12.43,-12.29,0,*52
1514992008.9,23004,6.13,71486.3,-6.39,-12.39,-12.39,0,*59
1514992010.16,23005,6.13,71496.8,-6.41,-12.53,-12.43,0,*56
1514992011.42,23006,6.13,71518.8,-6.41,-12.53,-12.29,0,*59
1514992012.66,23007,6.13,71520.0,-6.39,-12.57,-12.39,0,*52
1514992013.89,23008,6.13,71468.5,-6.39,-12.61,-12.43,0,*55
1514992015.12,23009,6.13,71456.5,-6.39,-12.61,-12.39,0,*59
1514992016.38,23010,6.13,71434.8,-6.39,-12.75,-12.53,0,*58
1514992017.64,23011,6.13,71448.3,-6.39,-12.71,-12.53,0,*5D
1514992018.87,23012,6.13,71464.5,-6.39,-12.43,-12.15,0,*5D
1514992020.1,23013,6.13,71462.5,-6.39,-12.43,-12.15,0,*5C
1514992021.33,23014,6.13,71446.0,-6.39,-12.29,-12.11,0,*53
1514992022.6,23015,6.13,71432.5,-6.39,-12.53,-12.11,0,*5F
1514992023.86,23016,6.13,71426.8,-6.39,-12.53,-12.11,0,*5C
1514992025.09,23017,6.13,71426.8,-6.39,-12.71,-12.25,0,*5A
1514992026.32,23018,6.13,71388.8,-6.39,-12.61,-12.25,0,*54
1514992027.57,23019,6.13,71398.5,-6.37,-12.47,-12.11,0,*58
1514992028.83,23020,6.13,71426.3,-6.37,-12.25,-11.93,0,*5F
1514992030.09,23021,6.13,71412.0,-6.37,-12.39,-11.93,0,*53
1514992031.37,23022,6.13,71442.3,-6.37,-12.35,-11.85,0,*5B
1514992032.65,23023,6.13,71460.5,-6.37,-12.35,-11.93,0,*5D
1514992033.91,23024,6.13,71470.0,-6.35,-12.35,-11.89,0,*53
1514992035.17,23025,6.13,71468.0,-6.35,-12.53,-11.81,0,*5A
1514992036.45,23026,6.13,71474.3,-6.37,-12.65,-11.93,0,*5D
1514992037.73,23027,6.13,71482.0,-6.37,-12.71,-11.85,0,*5E
1514992039.0,23028,6.13,71476.8,-6.37,-12.65,-11.73,0,*5D
1514992040.24,23029,6.13,71484.3,-6.35,-12.47,-11.63,0,*5F
1514992041.5,23030,6.13,71494.8,-6.35,-12.35,-11.55,0,*57
1514992042.74,23031,6.13,71468.0,-6.35,-12.29,-11.55,0,*5B
1514992044.01,23032,6.13,71466.8,-6.35,-12.35,-11.63,0,*50
1514992045.25,23033,6.13,71464.8,-6.37,-12.39,-11.77,0,*5A
1514992046.51,23034,6.13,71464.8,-6.37,-12.47,-11.59,0,*58
1514992047.74,23035,6.13,71460.3,-6.35,-12.29,-11.55,0,*5F
1514992049.0,23036,6.13,71476.8,-6.37,-12.21,-11.37,0,*52
1514992050.27,23037,6.13,71452.3,-6.35,-11.93,-11.07,0,*58
1514992051.51,23038,6.13,71430.5,-6.35,-11.77,-10.97,0,*55
1514992052.76,23039,6.13,71464.0,-6.37,-11.73,-11.01,0,*5C
1514992054.02,23040,6.13,71462.0,-6.37,-11.55,-10.97,0,*58
1514992055.3,23041,6.13,71446.0,-6.37,-11.29,-10.75,0,*5E
1514992056.56,23042,6.13,71446.5,-6.37,-11.23,-10.79,0,*5B
1514992057.82,23043,6.13,71412.5,-6.37,-11.29,-11.15,0,*5B
1514992059.08,23044,6.13,71446.3,-6.37,-11.41,-11.29,0,*5D
1514992060.33,23045,6.13,71432.8,-6.39,-11.77,-11.59,0,*50
1514992061.56,23046,6.13,71442.8,-6.39,-12.03,-11.85,0,*52
1514992062.85,23047,6.13,71462.0,-6.41,-11.85,-11.63,0,*59
1514992064.13,23048,6.13,71430.8,-6.41,-11.97,-11.77,0,*50
1514992065.41,23049,6.13,71438.8,-6.41,-11.89,-11.85,0,*53
1514992066.69,23050,6.13,71452.3,-6.41,-11.89,-11.89,0,*57
1514992067.92,23051,6.13,71448.0,-6.41,-12.03,-12.03,0,*56
1514992069.18,23052,6.13,71456.5,-6.41,-12.03,-11.97,0,*5B
1514992070.46,23053,6.13,71456.5,-6.41,-12.11,-11.97,0,*59
1514992071.72,23054,6.13,71454.8,-6.41,-12.29,-11.97,0,*55
1514992072.98,23055,6.13,71456.5,-6.41,-12.43,-11.89,0,*57
1514992074.26,23056,6.13,71466.5,-6.41,-12.57,-12.11,0,*53
1514992075.54,23057,6.13,71470.3,-6.41,-12.53,-11.97,0,*5B
1514992076.8,23058,6.13,71490.3,-6.43,-12.57,-11.93,0,*56
1514992078.03,23059,6.13,71496.0,-6.39,-12.43,-11.89,0,*54
1514992079.32,23060,6.13,71488.8,-6.41,-12.53,-11.97,0,*5F
1514992080.6,23061,6.13,71488.3,-6.41,-12.57,-11.97,0,*5A
1514992081.85,23062,6.13,71482.8,-6.43,-12.65,-12.07,0,*50
1514992083.11,23063,6.13,71458.3,-6.43,-12.79,-12.07,0,*5C
1514992084.34,23064,6.13,71448.3,-6.43,-12.89,-12.07,0,*54
1514992085.55,23065,6.13,71474.0,-6.43,-12.89,-12.03,0,*51
1514992086.78,23066,6.13,71474.8,-6.43,-12.89,-11.93,0,*58
1514992088.04,23067,6.13,71466.8,-6.41,-12.89,-11.89,0,*50
1514992089.3,23068,6.13,71450.5,-6.41,-12.89,-11.89,0,*5F
1514992090.53,23069,6.13,71448.8,-6.43,-12.93,-11.93,0,*5C
1514992091.79,23070,6.13,71476.0,-6.41,-12.89,-11.85,0,*5A
1514992093.04,23071,6.13,71464.5,-6.43,-12.79,-11.77,0,*5B
1514992094.33,23072,6.13,71450.3,-6.41,-12.75,-11.55,0,*56
1514992095.6,23073,6.13,71440.8,-6.41,-12.83,-11.59,0,*52
1514992096.86,23074,6.13,71422.0,-6.41,-12.97,-11.59,0,*50
1514992098.12,23075,6.13,71436.8,-6.41,-12.97,-11.55,0,*5D
1514992099.35,23076,6.13,71470.8,-6.43,-13.01,-11.45,0,*53
1514992100.6,23077,6.13,71470.3,-6.41,-12.83,-11.19,0,*52
1514992101.89,23078,6.13,71456.3,-6.45,-12.61,-11.07,0,*5A
1514992103.09,23079,6.13,71466.0,-6.43,-12.43,-10.93,0,*51
1514992104.31,23080,6.13,71442.3,-6.43,-12.29,-10.97,0,*5F
1514992105.56,23081,6.13,71422.8,-6.43,-12.15,-11.07,0,*59
1514992106.79,23082,6.13,71418.3,-6.43,-12.15,-11.23,0,*5C
1514992108.08,23083,6.13,71438.5,-6.41,-12.11,-11.29,0,*51
1514992109.34,23084,6.13,71462.8,-6.45,-12.21,-11.37,0,*5E